Weather Roundup
Issued by NWS

Home | Current Version | Previous Version | Graphics & Text | Print | Product List | Glossary Off
Versions: 1 2 3 4 5 6 7 8 9 10 11 12 13 14 15 16 17 18 19 20 21 22 23 24 25 26 27 28 29 30 31 32 33 34 35 36 37 38 39 40 41 42 43 44 45 46 47 48 49 50

000
NZUS93 KARX 061059
HRRWXR

CURRENT HOURLY OBSERVATIONS ACROSS
MUCH OF THE UPPER MISSISSIPPI VALLEY
NATIONAL WEATHER SERVICE LA CROSSE WI
600 AM CDT MON JUL 06 2015


...SOUTHEAST MINNESOTA...


CITY           SKY/WX    TMP DP  RH WIND       PRES   REMARKS
ROCHESTER      LGT RAIN  73  70  90 W9        29.85S
ROCHESTER/MAYO CLOUDY    73  70  91 W14G21    29.83F
WINONA         CLOUDY    73  68  83 CALM      29.82R
AUSTIN         TSTM      72  70  94 CALM      29.80F
ALBERT LEA     LGT RAIN  72  70  94 SW5       29.84F
DODGE CENTER   LGT RAIN  72  70  94 SW7       29.86S
PRESTON        LGT RAIN  70  67  90 SW9       29.84F
OWATONNA       RAIN      72  70  94 CALM      29.82F
FARIBAULT      CLOUDY    70  70 100 SW3       29.82F
$$

...ELSEWHERE IN MINNESOTA...


CITY           SKY/WX    TMP DP  RH WIND       PRES   REMARKS
MINNEAPOLIS    HVY RAIN  69  68  96 SE14      29.83R FOG
INTNL FALLS    FOG       57  56  96 NW8       29.90R VSB 1
DULUTH         LGT RAIN  67  64  90 N6        29.85R FOG
RED WING       HVY RAIN  72  70  94 W5        29.81S
REDWOOD FALLS  LGT RAIN  70  69  97 W8        29.83R
MANKATO        CLOUDY    70  68  94 SE7       29.81F
WORTHINGTON    CLOUDY    68  64  88 NE7       29.84F
FAIRMONT       CLOUDY    70  64  83 S9        29.83F
$$

...SOUTHWEST WISCONSIN...


CITY           SKY/WX    TMP DP  RH WIND       PRES   REMARKS
LA CROSSE      CLOUDY    74  67  78 S17       29.83S
PRAIRIE DU CHI CLOUDY    73  65  78 SE3       29.86F
BOSCOBEL       CLOUDY    72  66  81 VRB5      29.88F HAZE
LONE ROCK      NOT AVBL
PLATTEVILLE    CLOUDY    69  67  92 S9        29.91F
FORT MC COY    CLOUDY    71  64  78 CALM      29.86F
VIROQUA        FAIR      69  67  93 S13       29.88F
WIS DELLS      CLOUDY    68  63  83 S7        29.90F HAZE
$$

...ELSEWHERE IN WISCONSIN...


CITY           SKY/WX    TMP DP  RH WIND       PRES   REMARKS
MILWAUKEE      PTCLDY    66  61  84 S6        29.98R
MADISON        CLOUDY    70  63  78 S10       29.92F HAZE
GREEN BAY      MOCLDY    65  62  90 MISG      29.94R FOG
EAU CLAIRE     TSTM      68  66  94 NE13      29.82R VSB 3/4
BLACK RVR FLS  FAIR      70  65  84 S3        29.83F
MEDFORD        CLOUDY    66  64  95 E3        29.89F FOG
WAUSAU         CLOUDY    67  63  87 SE6       29.88F FOG
WIS RAPIDS     CLOUDY    68  63  84 SE5       29.89F
MARSHFIELD     CLOUDY    68  63  84 SE6       29.87F HAZE
RICE LAKE      RAIN      67  66  95 E6        29.85F
$$

...NORTHEAST IOWA...


CITY           SKY/WX    TMP DP  RH WIND       PRES   REMARKS
DECORAH          N/A    N/A N/A N/A MISG        N/A
MASON CITY     HVY RAIN  73  71  93 W17G32    29.87R FOG
CHARLES CITY   CLOUDY    72  72 100 S10G16    29.86R
OELWEIN        CLOUDY   N/A N/A N/A MISG        N/A  FOG
$$

...ELSEWHERE IN IOWA...


CITY           SKY/WX    TMP DP  RH WIND       PRES   REMARKS
DES MOINES     CLOUDY    78  71  79 SE6       29.83R THUNDER
IOWA CITY      CLOUDY    71  68  90 SE5       29.90R FOG
FORT DODGE     CLOUDY    72  66  83 N7        29.85F
$$

...NORTHERN ILLINOIS...


CITY           SKY/WX    TMP DP  RH WIND       PRES   REMARKS
CHICAGO-OHARE  PTCLDY    66  63  90 S6        29.98R FOG
CHICAGO-MIDWAY PTCLDY    71  65  81 S8        30.00R
MOLINE         MOCLDY    72  67  84 S5        29.92S HAZE
ROCKFORD       CLOUDY    66  62  87 S5        29.97S FOG
PEORIA         PTCLDY    70  65  84 S6        29.97F HAZE
$$

NOTE: "FAIR" INDICATES FEW OR NO CLOUDS BELOW 12,000 FEET WITH NO
SIGNIFICANT WEATHER AND/OR OBSTRUCTIONS TO VISIBILITY. WIND
SPEEDS ARE IN MILES-PER-HOUR.



USA.gov is the U.S. government's official web portal to all federal, state and local government web resources and services.